JAL154 RJBD-RJOH

Flight info

Callsign JAL154
Flight time 0h 41m
Altitude 27000
Route RJBD/33 NKE3R NKE DCT NORAN V55 ITE/N0422F260 V55 ROKKO Y38 TOZAN Y188 RAKDA GAINAE RJOH/25
Aircraft A320/M-V/N

Departure

Time 2026-04-21 02:08
Airport Nanki Shirahama Airport (RJBD)

Arrival

Time 2026-04-21 02:49
Airport Yonago Kitaro Airport / JASDF Miho Air Base (RJOH)
Time Latitude Longitude Altitude Speed Heading
2026-04-21 02:00 33.66275 135.36089 311 ft 0 kts 231°
2026-04-21 02:00 33.66276 135.36089 311 ft 0 kts 231°
2026-04-21 02:01 33.66285 135.36102 310 ft 2 kts 229°
2026-04-21 02:01 33.66294 135.36116 309 ft 2 kts 231°
2026-04-21 02:01 33.66303 135.36130 308 ft 2 kts 230°
2026-04-21 02:01 33.66314 135.36139 307 ft 2 kts 168°
2026-04-21 02:02 33.66323 135.36131 307 ft 2 kts 124°
2026-04-21 02:02 33.66330 135.36113 308 ft 2 kts 95°
2026-04-21 02:02 33.66330 135.36102 309 ft 1 kts 75°
2026-04-21 02:02 33.66329 135.36096 309 ft 0 kts 76°
2026-04-21 02:04 33.66329 135.36098 309 ft 0 kts 74°
2026-04-21 02:04 33.66329 135.36099 309 ft 1 kts 73°
2026-04-21 02:05 33.66336 135.36139 306 ft 9 kts 83°
2026-04-21 02:05 33.66390 135.36267 296 ft 22 kts 82°
2026-04-21 02:05 33.66276 135.36401 285 ft 33 kts 139°
2026-04-21 02:05 33.66045 135.36636 265 ft 55 kts 139°
2026-04-21 02:06 33.65766 135.36922 256 ft 53 kts 140°
2026-04-21 02:06 33.65589 135.37117 256 ft 22 kts 129°
2026-04-21 02:06 33.65562 135.37111 256 ft 8 kts 324°
2026-04-21 02:06 33.65602 135.37062 256 ft 3 kts 320°
2026-04-21 02:07 33.65603 135.37061 256 ft 3 kts 320°
2026-04-21 02:07 33.65799 135.36870 256 ft 75 kts 321°
2026-04-21 02:07 33.66334 135.36359 289 ft 131 kts 321°
2026-04-21 02:08 33.67054 135.35654 630 ft 148 kts 322°
2026-04-21 02:08 33.67738 135.34903 1230 ft 151 kts 320°
2026-04-21 02:08 33.68422 135.34106 1908 ft 150 kts 327°
2026-04-21 02:08 33.69243 135.33496 2461 ft 160 kts 337°
2026-04-21 02:09 33.70213 135.33150 2970 ft 171 kts 356°
2026-04-21 02:09 33.71327 135.33254 3485 ft 187 kts 11°
2026-04-21 02:09 33.72452 135.33806 3991 ft 206 kts 27°
2026-04-21 02:09 33.73466 135.34878 4491 ft 230 kts 46°
2026-04-21 02:10 33.74273 135.36374 5020 ft 249 kts 53°
2026-04-21 02:10 33.75097 135.37962 5538 ft 260 kts 44°
2026-04-21 02:10 33.76333 135.39113 6108 ft 257 kts 15°
2026-04-21 02:10 33.77940 135.39641 6988 ft 255 kts
2026-04-21 02:11 33.79590 135.40108 7785 ft 261 kts
2026-04-21 02:11 33.81302 135.40605 8531 ft 268 kts
2026-04-21 02:11 33.82978 135.41103 9231 ft 275 kts
2026-04-21 02:11 33.84684 135.41621 9904 ft 282 kts
2026-04-21 02:12 33.86475 135.42171 10547 ft 291 kts
2026-04-21 02:12 33.88287 135.42723 10954 ft 306 kts
2026-04-21 02:12 33.90237 135.43318 11345 ft 322 kts
2026-04-21 02:12 33.92473 135.44005 11751 ft 339 kts
2026-04-21 02:13 33.94626 135.44638 12108 ft 353 kts
2026-04-21 02:13 33.96769 135.45039 12490 ft 361 kts 359°
2026-04-21 02:13 33.98993 135.45174 13062 ft 363 kts 353°
2026-04-21 02:13 34.01259 135.45097 13661 ft 366 kts 351°
2026-04-21 02:14 34.03708 135.44952 14314 ft 369 kts 349°
2026-04-21 02:14 34.06201 135.44795 15010 ft 371 kts 349°
2026-04-21 02:14 34.08476 135.44652 15616 ft 373 kts 348°
2026-04-21 02:14 34.10812 135.44508 16198 ft 376 kts 348°
2026-04-21 02:15 34.13135 135.44365 16771 ft 378 kts 348°
2026-04-21 02:15 34.15476 135.44225 17350 ft 380 kts 348°
2026-04-21 02:15 34.17821 135.44089 17900 ft 382 kts 347°
2026-04-21 02:15 34.20429 135.43932 18442 ft 386 kts 347°
2026-04-21 02:16 34.23058 135.43771 19006 ft 389 kts 347°
2026-04-21 02:16 34.24274 135.43700 19266 ft 390 kts 346°
2026-04-21 02:16 34.26407 135.43571 19689 ft 393 kts 347°
2026-04-21 02:16 34.29084 135.43413 20234 ft 396 kts 347°
2026-04-21 02:17 34.31542 135.43266 20787 ft 398 kts 346°
2026-04-21 02:17 34.34216 135.43111 21326 ft 400 kts 347°
2026-04-21 02:17 34.36824 135.42953 21777 ft 405 kts 346°
2026-04-21 02:17 34.39324 135.42809 22179 ft 409 kts 346°
2026-04-21 02:18 34.41823 135.42656 22598 ft 413 kts 346°
2026-04-21 02:18 34.44376 135.42502 23082 ft 415 kts 346°
2026-04-21 02:18 34.46954 135.42348 23518 ft 418 kts 346°
2026-04-21 02:18 34.49543 135.42197 24019 ft 419 kts 346°
2026-04-21 02:19 34.52119 135.42046 24420 ft 422 kts 346°
2026-04-21 02:19 34.54793 135.41885 24746 ft 428 kts 346°
2026-04-21 02:19 34.57458 135.41722 25121 ft 432 kts 346°
2026-04-21 02:19 34.60162 135.41562 25589 ft 433 kts 346°
2026-04-21 02:20 34.62881 135.41403 26021 ft 435 kts 346°
2026-04-21 02:20 34.65603 135.41243 26415 ft 437 kts 346°
2026-04-21 02:20 34.68411 135.41075 26810 ft 440 kts 346°
2026-04-21 02:20 34.71196 135.40909 27042 ft 443 kts 346°
2026-04-21 02:21 34.74042 135.40739 27048 ft 443 kts 346°
2026-04-21 02:21 34.76855 135.40552 27050 ft 442 kts 344°
2026-04-21 02:21 34.79611 135.40199 27052 ft 437 kts 340°
2026-04-21 02:21 34.82399 135.39629 27054 ft 432 kts 337°
2026-04-21 02:22 34.85063 135.38879 27056 ft 428 kts 334°
2026-04-21 02:22 34.87684 135.38031 27054 ft 424 kts 333°
2026-04-21 02:22 34.90321 135.37148 27056 ft 424 kts 333°
2026-04-21 02:22 34.92936 135.36267 27056 ft 423 kts 333°
2026-04-21 02:23 34.95538 135.35393 27056 ft 423 kts 333°
2026-04-21 02:23 34.98185 135.34512 27057 ft 423 kts 333°
2026-04-21 02:23 35.00768 135.33653 27056 ft 424 kts 333°
2026-04-21 02:23 35.03413 135.32773 27053 ft 425 kts 333°
2026-04-21 02:24 35.06036 135.31883 27049 ft 424 kts 331°
2026-04-21 02:24 35.08447 135.30576 27040 ft 401 kts 317°
2026-04-21 02:24 35.10426 135.28628 27045 ft 384 kts 304°
2026-04-21 02:24 35.11945 135.26143 27052 ft 371 kts 293°
2026-04-21 02:25 35.12895 135.23439 27049 ft 364 kts 283°
2026-04-21 02:25 35.13444 135.20715 27056 ft 363 kts 280°
2026-04-21 02:25 35.13978 135.17944 27055 ft 364 kts 281°
2026-04-21 02:25 35.14510 135.15190 27051 ft 364 kts 280°
2026-04-21 02:26 35.15036 135.12465 27056 ft 363 kts 280°
2026-04-21 02:26 35.15566 135.09691 27058 ft 361 kts 281°
2026-04-21 02:26 35.16095 135.06931 27060 ft 361 kts 279°
2026-04-21 02:26 35.16623 135.04163 27057 ft 362 kts 280°
2026-04-21 02:27 35.17147 135.01402 27062 ft 363 kts 280°
2026-04-21 02:27 35.17681 134.98622 27067 ft 362 kts 280°
2026-04-21 02:27 35.18203 134.95859 27074 ft 362 kts 280°
2026-04-21 02:27 35.18721 134.93141 27077 ft 360 kts 279°
2026-04-21 02:28 35.19249 134.90347 26938 ft 361 kts 279°
2026-04-21 02:28 35.19788 134.87480 26691 ft 360 kts 279°
2026-04-21 02:28 35.20306 134.84738 26456 ft 358 kts 280°
2026-04-21 02:28 35.20818 134.82028 26208 ft 355 kts 280°
2026-04-21 02:29 35.21326 134.79330 25844 ft 353 kts 280°
2026-04-21 02:29 35.21843 134.76596 25532 ft 351 kts 279°
2026-04-21 02:29 35.22358 134.73846 25124 ft 348 kts 280°
2026-04-21 02:29 35.22852 134.71201 24702 ft 346 kts 279°
2026-04-21 02:30 35.23335 134.68607 24274 ft 343 kts 280°
2026-04-21 02:30 35.23823 134.66000 23840 ft 340 kts 280°
2026-04-21 02:30 35.24314 134.63397 23401 ft 338 kts 279°
2026-04-21 02:30 35.24788 134.60857 22970 ft 335 kts 280°
2026-04-21 02:31 35.25257 134.58307 22554 ft 332 kts 280°
2026-04-21 02:31 35.25721 134.55809 22127 ft 329 kts 279°
2026-04-21 02:31 35.26199 134.53250 21692 ft 326 kts 280°
2026-04-21 02:31 35.26682 134.50728 21231 ft 324 kts 281°
2026-04-21 02:32 35.27235 134.48291 20737 ft 324 kts 284°
2026-04-21 02:32 35.27865 134.45909 20248 ft 323 kts 286°
2026-04-21 02:32 35.28552 134.43556 19761 ft 321 kts 287°
2026-04-21 02:32 35.29234 134.41258 19299 ft 320 kts 287°
2026-04-21 02:33 35.29919 134.38953 18840 ft 318 kts 287°
2026-04-21 02:33 35.30605 134.36642 18372 ft 316 kts 288°
2026-04-21 02:33 35.31283 134.34363 17895 ft 314 kts 288°
2026-04-21 02:33 35.31952 134.32095 17445 ft 313 kts 287°
2026-04-21 02:34 35.32623 134.29842 17002 ft 312 kts 288°
2026-04-21 02:34 35.33286 134.27614 16569 ft 311 kts 288°
2026-04-21 02:34 35.33942 134.25397 16140 ft 311 kts 289°
2026-04-21 02:34 35.34592 134.23198 15712 ft 310 kts 289°
2026-04-21 02:35 35.35260 134.20937 15275 ft 309 kts 289°
2026-04-21 02:35 35.35921 134.18707 14864 ft 308 kts 289°
2026-04-21 02:35 35.36577 134.16483 14446 ft 307 kts 290°
2026-04-21 02:35 35.37234 134.14261 13983 ft 308 kts 290°
2026-04-21 02:36 35.37902 134.12004 13468 ft 310 kts 290°
2026-04-21 02:36 35.38565 134.09750 12933 ft 311 kts 291°
2026-04-21 02:36 35.39236 134.07469 12386 ft 313 kts 290°
2026-04-21 02:36 35.39912 134.05173 11879 ft 313 kts 291°
2026-04-21 02:37 35.40575 134.02916 11379 ft 313 kts 292°
2026-04-21 02:37 35.41237 134.00664 10900 ft 312 kts 292°
2026-04-21 02:37 35.41893 133.98428 10694 ft 301 kts 292°
2026-04-21 02:37 35.42525 133.96280 10558 ft 289 kts 292°
2026-04-21 02:38 35.43137 133.94186 10398 ft 278 kts 292°
2026-04-21 02:38 35.43722 133.92191 10265 ft 267 kts 292°
2026-04-21 02:38 35.44283 133.90274 10124 ft 256 kts 293°
2026-04-21 02:38 35.44852 133.88327 9990 ft 246 kts 293°
2026-04-21 02:39 35.45395 133.86469 9671 ft 244 kts 293°
2026-04-21 02:39 35.45936 133.84615 9322 ft 244 kts 293°
2026-04-21 02:39 35.46473 133.82785 8985 ft 243 kts 294°
2026-04-21 02:39 35.47001 133.80972 8646 ft 244 kts 294°
2026-04-21 02:40 35.47541 133.79128 8262 ft 244 kts 294°
2026-04-21 02:40 35.48074 133.77295 7945 ft 243 kts 295°
2026-04-21 02:40 35.48614 133.75441 7607 ft 243 kts 295°
2026-04-21 02:40 35.49156 133.73583 7280 ft 243 kts 295°
2026-04-21 02:41 35.49691 133.71742 6929 ft 243 kts 295°
2026-04-21 02:41 35.50245 133.69838 6576 ft 242 kts 296°
2026-04-21 02:41 35.50783 133.67989 6281 ft 241 kts 296°
2026-04-21 02:41 35.51338 133.66075 5965 ft 240 kts 296°
2026-04-21 02:42 35.51997 133.64276 5647 ft 235 kts 306°
2026-04-21 02:42 35.52887 133.62729 5344 ft 231 kts 315°
2026-04-21 02:42 35.53941 133.61293 5053 ft 229 kts 317°
2026-04-21 02:42 35.55020 133.59872 4753 ft 228 kts 317°
2026-04-21 02:43 35.56114 133.58435 4451 ft 229 kts 316°
2026-04-21 02:43 35.57188 133.57014 4136 ft 228 kts 316°
2026-04-21 02:43 35.58252 133.55600 3838 ft 228 kts 316°
2026-04-21 02:43 35.59295 133.54199 3541 ft 228 kts 313°
2026-04-21 02:44 35.59994 133.52477 3214 ft 236 kts 283°
2026-04-21 02:44 35.59860 133.50542 3159 ft 232 kts 258°
2026-04-21 02:44 35.59275 133.48755 3147 ft 225 kts 251°
2026-04-21 02:44 35.58604 133.47051 3136 ft 227 kts 250°
2026-04-21 02:45 35.57907 133.45342 3119 ft 228 kts 249°
2026-04-21 02:45 35.57235 133.43692 3060 ft 228 kts 249°
2026-04-21 02:45 35.56578 133.42067 2950 ft 225 kts 250°
2026-04-21 02:45 35.55941 133.40475 2692 ft 225 kts 249°
2026-04-21 02:46 35.55296 133.38860 2411 ft 225 kts 249°
2026-04-21 02:46 35.54653 133.37248 2131 ft 220 kts 248°
2026-04-21 02:46 35.54039 133.35712 1860 ft 214 kts 248°
2026-04-21 02:46 35.53446 133.34225 1604 ft 207 kts 246°
2026-04-21 02:47 35.52866 133.32771 1369 ft 195 kts 246°
2026-04-21 02:47 35.52322 133.31410 1179 ft 182 kts 246°
2026-04-21 02:47 35.51819 133.30147 924 ft 172 kts 245°
2026-04-21 02:47 35.51337 133.28938 694 ft 163 kts 245°
2026-04-21 02:48 35.50891 133.27818 507 ft 152 kts 244°
2026-04-21 02:48 35.50486 133.26800 330 ft 142 kts 243°
2026-04-21 02:48 35.50090 133.25813 151 ft 138 kts 244°
2026-04-21 02:48 35.49692 133.24814 30 ft 135 kts 243°
2026-04-21 02:49 35.49340 133.23926 22 ft 102 kts 242°
2026-04-21 02:49 35.49107 133.23383 11 ft 43 kts 243°
2026-04-21 02:49 35.49169 133.23171 9 ft 29 kts 357°
2026-04-21 02:49 35.49286 133.23332 11 ft 25 kts 65°
2026-04-21 02:50 35.49355 133.23517 16 ft 21 kts 64°
2026-04-21 02:50 35.49417 133.23671 20 ft 19 kts 64°
2026-04-21 02:50 35.49472 133.23810 24 ft 19 kts 64°
2026-04-21 02:50 35.49546 133.23996 25 ft 29 kts 63°
2026-04-21 02:51 35.49636 133.24210 25 ft 27 kts 63°
2026-04-21 02:51 35.49716 133.24414 25 ft 26 kts 65°
2026-04-21 02:51 35.49820 133.24535 25 ft 21 kts 352°
2026-04-21 02:51 35.49912 133.24573 27 ft 7 kts 31°
2026-04-21 02:52 35.49967 133.24554 27 ft 8 kts 336°
2026-04-21 02:52 35.49997 133.24536 28 ft 0 kts 334°